EHI
0 0 0 0 0 0 0 0 0 0 0 0 0 0 0 0 0 0 0 0 0 1 4 9 12 13 11 9 8 9 8 7 6 7 8 8 6 3 2 1 0 0 0 0 0 1 2 2 1
0 0 0 0 0 0 0 0 0 0 0 0 0 0 0 0 0 0 0 0 0 1 4 8 12 12 11 9 8 9 8 7 6 7 8 9 7 4 3 2 1 0 0 0 0 1 1 1 0
0 0 0 0 0 0 0 0 0 0 0 0 0 0 0 0 0 0 0 0 1 2 4 7 11 12 10 9 9 9 9 8 7 8 9 9 8 5 3 3 1 0 0 0 0 1 1 0 0
0 0 0 0 0 0 0 0 0 0 0 0 0 0 0 0 0 0 0 0 1 3 4 6 10 11 11 10 10 10 9 9 9 8 8 8 6 4 3 3 2 1 0 0 0 1 1 0 0
0 0 0 0 0 0 0 0 0 0 0 0 0 0 0 0 0 0 0 1 2 3 3 5 8 10 10 10 10 10 10 10 10 9 8 7 5 3 3 4 4 2 1 0 0 1 1 0 0
0 0 0 0 0 0 0 0 0 0 0 0 0 0 0 1 1 1 0 1 2 3 3 4 6 6 7 8 9 10 10 10 9 9 8 6 4 3 3 4 5 4 2 1 0 0 0 0 0
0 0 0 0 0 0 0 0 0 0 0 0 0 0 0 1 1 1 0 0 1 2 3 4 4 3 3 5 8 9 10 10 9 8 7 5 3 3 3 3 4 5 3 1 0 0 0 0 0
0 0 0 0 0 0 0 0 0 0 0 0 0 0 0 0 1 1 1 1 0 1 3 4 5 3 2 3 5 8 9 9 7 6 6 4 2 2 3 3 3 3 2 1 0 0 0 0 0
0 0 0 0 0 0 0 0 0 0 0 0 0 0 0 0 0 2 2 1 0 0 1 4 5 5 5 4 4 6 7 6 5 4 5 3 1 1 2 2 2 2 1 0 0 0 0 0 0
0 0 0 0 0 0 0 0 0 0 0 0 0 0 0 0 0 2 2 2 0 0 1 2 4 6 7 6 5 6 6 5 4 4 4 3 1 1 1 1 2 1 0 0 0 0 0 0 0
0 0 0 0 0 0 0 0 0 0 0 0 0 0 0 0 1 2 3 2 0 0 0 1 3 4 5 7 8 7 6 5 5 4 3 4 3 2 2 2 1 0 0 0 0 0 0 0 0
0 0 0 0 0 0 0 0 0 0 0 0 0 0 0 0 1 2 2 1 0 0 0 1 2 3 4 6 8 7 6 5 5 4 4 4 5 4 3 2 1 0 0 0 0 0 0 0 0
0 0 0 0 0 0 0 0 0 0 0 0 0 0 0 0 0 1 1 1 0 0 0 0 1 2 2 3 5 7 6 6 5 4 3 3 4 4 4 3 2 1 1 0 0 0 0 0 0
0 0 0 0 0 0 0 0 0 0 0 0 0 0 0 0 0 0 0 0 0 0 0 0 0 1 1 1 4 7 8 8 7 6 4 2 3 4 4 3 3 3 2 1 0 0 0 0 0
0 0 0 0 0 0 0 0 0 0 0 0 0 0 0 0 0 0 0 0 0 0 0 0 0 0 0 1 2 5 8 9 9 8 5 2 2 3 3 2 2 3 2 1 1 0 0 0 0
0 0 0 0 0 0 0 0 0 0 0 0 0 0 0 0 0 0 0 0 0 0 0 0 0 0 0 0 1 3 6 8 8 8 5 2 1 1 1 1 1 1 2 2 1 0 0 0 0
0 0 0 0 0 0 0 0 0 0 0 0 0 0 0 0 0 0 0 0 0 0 0 0 0 0 0 0 0 1 2 4 5 5 4 2 1 0 1 1 0 1 2 2 1 0 0 0 0
0 0 0 0 0 0 0 0 0 0 0 0 0 0 0 0 0 0 0 0 0 0 0 0 0 0 0 0 0 0 0 1 2 2 1 1 1 0 0 1 0 0 1 1 0 0 0 0 0
0 0 0 0 0 0 0 0 0 0 0 0 0 0 0 0 0 0 0 0 0 0 0 0 0 0 0 0 0 0 0 0 0 0 0 0 0 0 0 0 0 0 0 0 0 0 0 0 0
0 0 0 0 0 0 0 0 0 0 0 0 0 0 0 0 0 0 0 0 0 0 0 0 0 0 0 0 0 0 0 0 0 0 0 0 0 0 0 0 0 0 0 0 0 0 0 0 0
0 0 0 0 0 0 0 0 0 0 0 0 0 0 0 0 0 0 0 0 0 0 0 0 0 0 0 0 0 0 0 0 0 0 0 0 0 0 0 0 0 0 0 0 0 0 0 0 0
0 0 0 0 0 0 0 0 0 0 0 0 0 0 0 0 0 0 0 0 0 0 0 0 0 0 0 0 0 0 0 0 0 0 0 0 0 0 0 0 0 0 0 0 0 0 0 0 0
0 0 0 0 0 0 0 0 0 0 0 0 0 0 0 0 0 0 0 0 0 0 0 0 0 0 0 0 0 0 0 0 0 0 0 0 0 0 0 0 0 0 0 0 0 0 0 0 0
0 0 0 0 0 0 0 0 0 0 0 0 0 0 0 0 0 0 0 0 0 0 0 0 0 0 0 0 0 0 0 0 0 0 0 0 0 0 0 0 0 0 0 0 0 0 0 0 0
0 0 0 0 0 0 0 0 0 0 0 0 0 0 0 0 0 0 0 0 0 0 0 0 0 0 0 0 0 0 0 0 0 0 0 0 0 0 0 0 0 0 0 0 0 0 0 0 0
0 0 0 0 0 0 0 0 0 0 0 0 0 0 0 0 0 0 0 0 0 0 0 0 0 0 0 0 0 0 0 0 0 0 0 0 0 0 0 0 0 0 0 0 0 0 0 0 0
0 0 0 0 0 0 0 0 0 0 0 0 0 0 0 0 0 0 0 0 0 0 0 0 0 0 0 0 0 0 0 0 0 0 0 0 0 0 0 0 0 0 0 0 0 0 0 0 0
0 0 0 0 0 0 0 0 0 0 0 0 0 0 0 0 0 0 0 0 0 0 0 0 0 0 0 0 0 0 0 0 0 0 0 0 0 0 0 0 0 0 0 0 0 0 0 0 0
0 0 0 0 0 0 0 0 0 0 0 0 0 0 0 0 0 0 0 0 0 0 0 0 0 0 0 0 0 0 0 0 0 0 0 0 0 0 0 0 0 0 0 0 0 0 0 0 0
0 0 0 0 0 0 0 0 0 0 0 0 0 0 0 0 0 0 0 0 0 0 0 0 0 0 0 0 0 0 0 0 0 0 0 0 0 0 0 0 0 0 0 0 0 0 0 0 0
Wind_Speed
4 2 2 3 4 4 6 3 2 4 3 1 1 1 1 1 2 3 4 2 2 3 3 4 2 3 3 4 5 6 6 6 7 7 7 8 9 9 9 9 9 10 10 10 11 11 11 11 11
3 2 3 3 6 7 5 4 5 3 3 3 2 2 2 1 3 4 2 2 1 3 3 4 3 3 4 4 5 5 6 5 6 7 7 8 8 9 9 9 9 9 9 10 10 10 11 11 10
1 2 3 3 5 7 4 3 3 3 3 2 2 1 1 1 2 2 3 1 2 3 3 4 3 3 3 4 5 5 5 6 6 6 6 7 8 8 8 8 9 9 9 10 10 10 10 10 10
2 3 3 5 8 5 2 2 3 4 4 2 2 3 2 3 2 3 2 2 3 3 3 4 3 3 4 4 4 4 5 5 6 6 7 7 7 7 8 8 8 8 9 9 9 9 10 9 9
2 3 5 6 8 4 3 1 3 4 3 3 3 2 3 3 2 2 3 3 3 3 3 4 3 3 4 4 4 4 4 4 5 6 6 7 7 7 7 7 8 8 8 8 9 9 9 9 9
3 4 7 9 9 5 4 3 4 5 3 2 3 3 3 3 3 3 3 2 2 2 2 4 3 3 3 3 3 3 3 4 5 6 6 6 7 6 7 7 7 7 7 8 8 9 8 8 8
4 4 7 8 7 6 4 3 5 5 5 3 2 3 3 3 3 2 2 3 2 2 2 2 3 3 3 3 3 3 3 3 4 5 6 6 6 6 6 6 6 7 7 7 7 8 8 8 7
2 3 6 7 8 6 4 3 1 3 2 1 2 3 2 3 2 2 3 3 2 2 2 2 2 3 3 3 3 2 3 2 4 5 5 6 6 6 5 6 6 7 6 7 7 7 7 7 7
3 6 8 8 7 5 5 4 2 1 2 2 1 2 3 3 3 3 3 2 1 1 1 1 1 1 2 2 3 3 2 2 4 5 5 5 4 5 4 5 6 7 6 6 7 7 7 6 6
4 7 7 3 3 4 5 4 3 4 4 3 3 1 2 4 4 4 3 3 2 1 0 0 1 1 1 1 2 2 2 3 3 3 4 4 3 3 3 6 6 6 6 6 6 7 6 4 4
3 5 3 2 2 3 4 3 3 5 5 4 3 3 3 3 3 3 3 3 2 1 1 1 1 1 1 1 1 1 1 2 2 3 4 3 3 3 3 3 4 5 5 4 5 5 3 2 2
3 2 2 2 2 3 3 3 3 4 3 2 2 2 4 4 4 3 3 1 1 1 2 2 1 1 1 1 1 2 2 2 2 2 3 3 2 2 3 2 3 3 2 3 3 2 2 2 3
5 3 2 1 2 2 2 3 4 4 3 2 1 3 4 3 2 1 1 0 0 1 2 2 2 1 1 1 1 1 2 2 2 2 2 3 2 3 3 2 2 3 2 2 2 2 3 3 2
3 3 2 1 2 3 4 4 4 4 2 2 2 2 3 3 2 1 0 0 1 1 2 2 1 1 1 1 1 1 2 2 2 2 2 3 2 3 3 3 2 2 2 2 2 3 3 2 2
3 3 3 3 3 3 4 6 6 4 3 3 3 2 2 2 2 1 1 1 1 1 2 2 1 1 1 1 1 1 1 2 2 2 3 3 2 3 3 3 3 2 2 3 2 3 2 2 2
3 5 5 3 3 3 7 8 3 2 4 4 3 3 2 2 2 1 1 1 1 1 1 1 1 1 0 0 1 1 1 1 1 2 2 3 3 3 3 3 2 2 2 2 2 2 2 2 2
5 6 6 3 3 3 7 6 3 3 5 5 4 4 3 2 1 1 1 1 1 1 0 1 1 1 0 0 1 1 1 1 1 2 2 2 3 3 3 2 2 3 2 2 2 2 2 2 2
6 6 6 6 2 5 7 7 4 4 5 5 5 4 4 3 2 1 1 1 1 0 0 0 1 1 1 1 1 1 1 1 1 1 2 2 2 3 3 2 3 3 2 2 2 3 2 2 2
3 5 6 4 1 5 9 9 7 6 6 6 6 5 5 4 2 1 1 1 1 0 0 1 1 1 1 1 1 1 1 1 1 1 1 2 1 2 3 2 3 3 2 2 2 2 3 2 1
6 6 6 4 2 5 7 10 8 7 7 6 6 6 5 4 2 1 1 1 1 1 0 1 1 1 1 0 0 0 0 0 1 1 1 1 1 2 1 2 2 2 2 2 2 2 2 1 1
7 8 7 5 3 4 6 8 7 5 5 4 4 4 4 4 3 2 2 1 1 1 1 1 1 1 1 1 1 1 1 1 1 1 1 1 1 2 2 1 2 2 2 2 3 3 3 2 2
7 5 6 6 5 4 4 7 5 5 6 5 5 4 3 3 3 2 2 1 1 1 1 1 1 1 1 1 1 2 1 1 0 0 0 1 1 1 1 1 2 2 2 2 2 3 3 3 2
3 2 4 5 6 6 6 7 5 4 7 6 5 4 3 2 2 1 1 1 1 1 1 1 1 1 1 1 2 2 1 1 0 0 1 0 1 1 0 1 1 2 2 2 3 2 3 3 3
4 3 2 3 4 7 7 8 7 5 6 5 4 4 3 2 1 1 1 0 0 0 0 1 1 1 1 2 2 2 2 2 1 1 0 0 0 1 0 0 0 1 1 2 2 2 3 3 3
6 5 3 4 5 6 3 7 7 2 3 4 4 3 3 2 1 1 1 1 0 0 0 1 1 1 1 2 2 1 1 1 1 1 0 0 0 0 0 0 0 1 1 1 1 2 2 3 4
8 7 5 5 5 3 4 8 3 1 1 2 2 3 3 2 2 1 1 1 1 0 0 1 1 1 1 2 1 1 1 1 1 1 1 1 0 0 1 1 1 1 1 1 2 2 2 2 3
6 7 3 3 3 5 6 5 4 2 3 3 4 3 2 2 1 1 1 1 1 1 0 0 1 1 1 2 2 2 1 1 1 1 1 0 0 0 1 1 1 1 1 2 2 2 2 2 3
3 3 4 5 5 7 6 7 5 5 5 5 5 4 2 2 1 1 0 1 1 1 1 0 1 1 1 1 1 1 1 1 0 0 0 0 0 0 1 1 1 1 2 3 3 2 2 3 3
6 5 5 4 4 5 6 4 1 4 5 6 5 4 3 2 2 1 0 0 0 1 0 0 1 1 1 1 1 1 1 0 0 0 0 0 0 0 1 1 1 2 2 2 3 2 2 3 4
5 6 7 6 6 5 6 5 2 2 3 4 4 3 3 2 2 2 1 1 1 1 0 0 0 1 1 1 1 1 1 0 0 0 0 1 1 1 1 2 2 2 3 3 3 4 3 4 4
Wind_Direction
320 300 240 229 216 220 225 196 191 160 158 114 121 213 210 228 301 50 65 89 85 132 142 145 116 115 113 110 109 112 109 109 114 108 104 109 111 112 114 112 109 107 105 103 101 98 96 94 92
313 255 217 229 234 223 210 194 196 183 112 123 151 198 190 134 26 53 81 70 127 137 144 142 109 109 109 114 112 117 115 116 119 115 110 108 113 110 112 113 111 109 106 105 105 102 100 97 95
239 261 224 215 230 236 210 168 177 137 143 175 160 198 335 79 74 68 57 108 141 135 139 122 106 110 107 112 113 110 119 124 123 120 115 112 110 114 109 114 116 115 111 108 108 105 103 100 98
214 187 208 226 221 235 248 137 143 153 160 187 193 152 117 43 24 39 74 132 135 130 135 125 113 117 114 111 111 113 115 130 129 123 116 115 109 111 110 110 117 117 116 113 111 108 105 102 100
220 211 204 219 226 214 228 202 183 191 172 167 199 172 130 92 49 70 116 135 135 131 135 133 117 120 115 112 115 115 121 125 133 128 121 117 110 106 112 110 112 116 117 116 115 112 109 107 103
190 215 223 224 216 205 205 211 218 221 200 181 203 183 128 99 88 84 115 131 126 129 140 140 122 113 115 112 109 110 116 121 133 136 127 121 114 107 117 116 118 117 120 120 119 116 114 111 107
214 213 234 232 219 213 198 196 222 221 209 197 211 184 139 134 92 104 120 123 114 122 133 140 156 146 123 106 99 98 101 113 130 135 123 114 111 107 117 122 124 122 121 123 123 120 116 112 110
244 214 223 221 221 214 163 169 211 238 214 91 232 213 152 118 112 125 118 112 105 111 117 119 152 164 167 154 114 104 97 109 131 124 118 114 121 116 118 129 125 125 122 124 125 122 118 115 111
224 223 224 216 218 197 163 177 148 221 180 173 230 336 27 111 150 149 140 126 109 94 94 105 123 170 178 172 154 152 133 125 146 138 127 137 152 147 140 124 119 124 124 123 125 121 116 118 117
214 227 229 226 221 187 175 187 175 189 201 199 187 151 135 165 177 177 179 176 181 200 266 110 178 166 172 176 174 186 181 168 174 165 163 165 154 145 134 121 120 123 124 126 122 120 127 139 137
207 228 204 185 181 183 188 194 198 217 229 233 227 191 168 177 190 195 197 195 204 225 261 277 251 203 167 175 184 191 185 179 177 174 173 161 147 146 145 145 144 145 145 142 134 144 142 142 138
188 199 206 171 166 188 198 201 212 241 277 317 274 208 185 189 195 203 209 217 235 266 277 295 284 242 201 191 188 194 179 179 172 176 174 165 154 158 159 155 152 153 150 146 153 153 144 148 152
199 180 181 181 171 204 214 233 250 254 276 289 218 190 190 188 190 190 182 157 108 317 309 307 309 284 245 217 202 199 182 178 175 171 184 174 168 164 158 154 155 150 148 160 162 156 158 158 155
165 170 182 202 214 225 225 245 243 246 243 225 212 205 194 190 200 205 206 311 318 302 316 320 313 305 272 220 210 200 192 175 178 167 167 174 175 165 161 156 154 158 162 170 176 171 176 171 167
158 175 206 221 222 211 220 238 231 240 230 225 226 215 210 211 215 229 251 262 271 291 310 328 323 301 248 219 218 209 193 183 176 164 159 164 175 170 162 164 159 164 171 171 176 173 179 174 175
189 208 217 182 201 201 225 241 209 215 234 233 226 224 225 229 229 243 256 264 272 291 323 345 355 2 249 209 195 193 185 182 182 162 153 164 172 171 166 165 161 159 173 174 169 173 177 180 189
201 221 225 205 192 208 229 249 209 222 238 240 233 230 233 233 237 252 248 259 270 286 335 28 35 44 54 123 157 175 166 168 178 158 147 159 170 169 165 167 159 162 166 177 171 175 181 185 190
208 221 229 226 190 224 237 248 239 236 241 245 240 230 229 232 245 261 244 241 240 266 53 98 89 70 97 128 128 143 130 133 133 134 136 142 161 165 163 155 155 162 164 170 179 174 171 185 194
229 228 241 250 264 244 246 257 255 247 244 245 242 235 229 230 236 246 239 214 184 147 110 98 113 102 110 124 149 169 153 149 122 114 130 132 144 157 158 161 156 165 167 174 178 170 170 164 172
221 230 246 254 253 264 265 267 263 247 241 244 245 242 236 228 224 218 217 193 201 190 156 159 151 115 108 105 159 216 171 164 133 112 97 112 149 139 146 170 157 169 169 171 171 160 169 156 183
228 237 243 253 273 246 272 257 236 234 229 232 242 244 237 229 229 228 223 211 191 212 232 213 176 137 117 115 131 119 124 129 143 134 126 100 159 162 141 148 164 166 163 182 185 184 185 181 186
234 233 236 241 245 241 244 270 235 227 235 233 230 228 234 228 223 229 228 232 216 234 233 217 172 132 138 143 131 141 152 149 210 320 74 120 140 142 158 152 183 174 174 180 197 199 202 198 197
221 176 218 233 244 253 228 251 253 208 237 232 226 226 231 236 226 220 238 252 260 243 227 215 172 145 143 145 142 153 145 119 105 104 61 43 138 118 126 150 190 178 183 182 197 205 211 212 213
159 152 162 208 230 244 231 233 255 218 229 231 219 212 206 201 189 153 74 43 348 295 213 211 171 150 154 157 156 153 145 138 115 91 86 239 193 144 111 189 225 202 194 191 202 208 219 225 225
190 192 208 214 220 243 189 230 254 259 242 231 216 203 184 160 137 102 68 42 28 68 176 203 175 166 172 171 163 158 158 151 142 159 240 256 258 36 345 249 234 246 213 202 201 202 218 229 228
200 217 228 242 244 250 205 234 251 3 270 215 194 183 160 137 113 93 68 37 8 27 166 193 188 188 186 186 178 163 157 162 159 198 230 256 270 6 341 303 275 289 246 208 208 200 218 240 238
195 214 259 264 280 265 236 243 258 192 203 194 184 173 170 147 132 113 83 37 16 19 78 174 189 191 194 192 185 174 162 157 158 171 208 221 317 354 300 311 289 271 277 250 222 223 218 228 242
255 182 189 210 229 246 247 241 237 193 202 197 196 195 185 167 162 139 96 18 6 15 33 127 174 187 192 181 169 150 160 156 146 184 176 114 24 9 279 285 295 283 269 261 233 227 230 228 234
185 194 214 217 249 250 254 242 181 213 204 204 207 202 195 194 195 196 212 324 57 86 85 135 164 173 188 191 175 170 166 114 90 94 12 332 346 299 285 283 293 284 280 274 250 239 235 237 238
241 222 209 221 223 240 261 262 88 221 217 218 217 208 204 209 210 206 222 235 190 155 147 170 196 191 208 210 188 176 173 164 181 358 338 313 302 300 294 285 278 278 271 269 258 249 243 242 244